Location: IoMAS Observatory
(54.1780°N, 4.6265°W)
Time: 11:10:15
(UTC+01:00)

ISS - Pass Details

Date: 06 December 2021
Orbit: 413 x 422 km, 51.6° (Epoch: 23 January)

Event Time Altitude Azimuth Distance (km) Brightness Sun altitude
Rises 19:27:00 0° 274° (W) 2,384 1.5 -20.6°
Reaches altitude 10° 19:30:16 10° 241° (WSW) 1,511 0.1 -21.1°
Maximum altitude 19:31:29 12° 219° (SW) 1,414 -0.5 -21.3°
Drops below altitude 10° 19:32:43 10° 198° (SSW) 1,505 -0.6 -21.4°
Enters shadow 19:34:45 - 173° (S) 1,975 -0.3 -21.7°
